Wind_Speed
17 17 17 17 17 17 17 17 17 16 16 15 14 14 13 13 12 12 12 12 11 10 9 9 10 9 8 8 7 7 6 6 6 5 4 4 3 3 2 2 2 2 2
18 19 19 18 18 19 19 19 19 18 18 18 17 16 15 15 14 13 13 13 12 12 11 11 10 10 10 9 8 7 7 7 7 6 5 5 4 3 3 3 3 3 3
20 20 20 20 20 20 21 21 20 20 20 19 19 19 18 17 16 16 15 14 14 13 13 12 12 11 10 10 9 9 8 8 8 7 7 7 6 5 5 4 4 4 4
21 22 22 22 22 22 22 23 23 22 22 22 21 21 20 19 18 17 17 16 16 15 15 14 13 13 12 11 11 10 10 9 9 9 8 8 8 7 6 6 5 5 5
22 23 23 23 24 24 24 25 25 25 24 24 24 23 23 22 20 20 19 18 18 18 17 16 15 15 14 13 12 12 11 11 10 10 10 9 9 8 8 7 7 6 6
22 23 24 24 25 25 26 26 27 27 26 26 26 25 25 25 23 22 21 20 20 20 19 19 18 17 16 15 14 13 13 12 12 11 11 11 10 10 9 9 8 8 8
24 24 25 26 26 27 27 27 28 28 28 28 28 27 27 27 26 24 23 22 21 21 20 20 20 19 18 17 16 16 15 14 14 13 13 12 12 11 11 10 10 9 9
25 26 26 26 27 28 28 29 29 30 30 30 30 29 29 29 29 28 26 25 24 23 23 22 22 21 20 19 18 17 17 16 16 15 14 14 14 13 12 12 11 11 10
25 26 27 27 27 28 29 30 31 31 31 31 31 31 30 31 30 30 29 28 27 26 25 24 24 24 23 22 21 20 19 19 18 17 17 16 16 15 15 14 14 13 13
25 26 27 27 28 27 29 30 31 32 32 32 32 32 32 32 32 32 31 30 29 28 27 27 26 26 25 24 23 22 21 21 20 20 19 18 18 17 17 17 16 16 15
26 26 27 27 28 28 28 28 30 31 32 33 33 33 33 32 33 33 33 32 31 30 29 29 28 28 27 26 25 24 24 23 23 22 22 21 20 20 19 19 18 18 17
26 26 27 27 27 28 29 29 30 31 32 33 34 34 35 35 33 34 34 33 33 32 31 31 30 29 29 28 27 26 26 25 25 24 24 23 22 22 21 21 21 20 19
26 26 27 27 27 27 28 29 30 31 32 33 34 35 35 36 35 34 35 35 34 33 33 33 32 31 31 30 29 29 28 27 27 26 26 25 25 24 23 23 23 22 22
26 27 27 28 28 28 29 29 30 31 31 33 33 35 36 36 37 36 34 35 35 34 34 34 33 33 32 32 31 30 30 29 28 28 28 28 27 26 26 25 25 25 25
26 27 27 28 28 29 30 31 30 31 32 32 33 34 35 36 37 37 36 35 36 36 36 35 34 34 34 33 33 32 31 31 30 30 29 29 29 28 28 27 27 27 26
26 26 27 28 29 29 30 31 32 33 33 33 32 33 35 36 37 38 37 36 37 37 37 37 36 36 36 35 34 34 34 33 32 32 32 32 31 30 30 29 29 29 28
25 26 27 28 29 29 30 31 32 33 33 33 33 34 35 36 37 37 38 37 37 38 38 37 37 38 37 36 35 35 34 34 33 33 33 33 33 32 31 31 30 30 30
25 26 26 28 29 29 29 30 31 32 34 35 35 35 35 35 37 37 39 38 37 39 39 38 39 39 38 37 37 36 35 35 35 34 34 35 34 34 33 33 32 32 31
24 25 26 27 27 28 30 30 31 32 34 34 36 36 36 36 36 36 38 39 38 38 38 38 38 38 37 37 38 37 36 36 35 35 35 35 36 35 35 35 35 34 33
23 24 26 27 27 27 28 29 30 31 33 35 36 37 37 38 36 35 36 38 38 38 39 38 38 39 38 37 37 37 37 37 36 36 36 36 36 37 37 37 36 36 35
23 23 25 26 27 27 28 28 29 30 31 32 33 36 37 37 36 35 36 37 37 36 38 39 38 39 39 38 38 38 38 37 36 36 36 36 36 36 37 37 37 36 36
23 23 23 24 25 26 27 28 28 28 29 30 32 34 36 36 35 35 36 37 38 36 37 38 38 38 38 38 38 38 38 37 37 37 37 37 36 36 37 37 37 37 37
21 21 22 23 24 25 25 26 27 28 28 30 31 32 34 35 35 35 36 37 38 37 38 38 38 38 38 38 37 38 38 38 38 37 37 38 38 38 38 38 38 39 39
21 21 22 22 23 24 25 25 25 26 27 29 30 31 33 33 34 35 37 37 39 39 39 38 38 39 39 39 39 39 39 38 38 37 38 39 39 40 40 40 40 40 41
21 22 22 22 22 22 23 24 24 24 25 26 28 30 31 33 34 35 36 38 38 39 39 39 39 39 39 40 40 40 40 40 40 39 39 40 41 41 41 41 41 42 42
21 22 22 22 22 22 22 23 23 23 24 25 26 28 29 30 33 34 36 37 38 39 40 40 40 40 40 40 41 41 41 41 41 41 41 41 41 42 43 43 43 43 44
Wind_Direction
256 253 250 250 249 247 245 243 241 238 235 233 231 229 226 224 220 216 213 211 211 211 211 210 210 211 210 211 211 211 213 214 213 217 219 220 224 227 235 244 247 251 255
257 254 252 251 251 250 248 245 242 240 237 235 233 231 229 228 225 222 220 218 218 218 217 215 215 215 216 218 219 218 219 221 221 224 226 227 232 239 248 253 258 261 259
257 256 255 253 252 251 249 247 244 242 239 237 235 233 232 230 230 229 226 225 224 223 222 221 221 221 222 223 224 224 225 227 229 230 231 233 237 244 251 252 255 259 259
257 256 256 255 254 252 251 248 246 245 242 239 238 236 235 234 232 234 232 231 229 227 226 225 225 226 227 228 228 229 232 231 231 233 236 238 242 247 251 252 255 257 258
258 257 257 257 256 254 251 250 248 246 245 242 241 240 238 237 235 236 236 234 232 231 230 229 229 230 231 231 232 233 234 234 235 237 239 240 243 246 248 253 256 258 256
260 258 258 257 257 255 253 250 249 248 246 245 243 242 240 238 238 238 237 236 234 234 233 233 232 233 234 234 236 238 238 237 237 239 240 241 243 246 248 250 253 255 257
261 260 259 258 257 255 254 251 248 247 246 245 244 243 240 240 240 239 238 238 237 237 236 235 235 236 236 236 237 239 239 240 240 240 241 241 243 245 247 249 250 252 256
264 262 259 259 257 256 254 253 250 248 247 245 245 244 242 241 241 241 241 241 240 237 237 236 237 238 238 239 239 240 240 242 243 243 242 242 242 243 246 249 250 250 254
264 263 261 260 258 257 256 255 253 250 247 246 245 244 244 243 243 243 242 242 241 240 238 237 237 238 240 240 240 241 241 242 244 244 243 244 245 245 247 250 250 251 254
265 264 263 261 259 258 257 255 253 250 248 246 245 244 244 243 243 242 241 241 241 240 240 239 239 240 240 240 241 241 242 243 244 245 245 246 248 249 249 251 252 253 254
265 265 264 261 260 259 257 255 253 251 249 247 245 244 244 243 242 241 240 240 240 240 240 240 240 241 242 242 242 242 243 244 244 245 246 247 248 250 250 251 252 254 255
266 265 264 263 260 258 256 253 252 252 251 248 246 244 244 243 241 240 239 238 239 239 240 240 240 240 241 242 242 243 244 244 245 245 246 247 249 250 251 252 253 254 257
268 267 266 265 261 258 256 255 253 253 251 249 247 244 244 243 241 241 240 239 239 239 240 240 241 241 242 242 243 244 244 245 246 247 247 247 249 251 252 253 254 255 258
271 269 270 267 262 259 259 257 256 253 251 249 247 245 244 243 241 240 240 240 239 239 240 240 241 242 242 243 243 244 244 246 248 249 249 249 249 251 253 254 254 256 259
272 270 269 268 266 263 260 259 258 254 252 250 247 246 244 243 241 241 240 241 240 239 239 240 240 241 242 243 243 243 245 247 249 250 251 250 250 251 252 253 255 256 259
273 272 271 269 268 266 263 261 260 257 253 249 248 246 244 243 241 241 241 241 242 240 240 240 240 241 241 243 244 244 245 246 249 251 252 252 251 251 252 254 256 258 260
276 274 273 271 269 268 265 263 260 256 252 249 247 246 245 243 242 241 241 241 242 241 240 240 241 243 243 243 244 245 246 248 249 250 251 252 251 252 252 254 256 257 260
277 275 275 273 272 270 267 262 259 257 253 250 247 246 245 243 242 241 242 242 243 243 241 241 242 243 243 244 245 245 246 248 249 250 251 251 251 252 254 255 257 258 260
278 277 276 275 274 273 268 263 260 258 254 251 249 249 248 245 242 241 243 243 244 243 242 242 242 241 242 244 245 245 246 247 248 250 252 252 252 252 253 255 257 259 261
281 280 278 278 275 275 270 265 262 260 258 254 252 250 249 247 245 244 243 243 244 244 243 242 242 242 242 243 244 245 245 247 249 250 250 251 253 253 254 255 257 259 260
283 284 283 281 279 277 274 270 267 262 257 256 256 252 250 249 248 246 246 243 243 244 243 241 242 242 242 243 245 246 246 247 249 250 251 252 253 254 254 256 258 260 261
283 284 284 283 281 280 276 273 270 264 258 257 257 253 250 250 251 248 247 245 244 243 243 242 242 243 243 243 245 246 247 248 250 251 251 251 252 253 255 257 258 260 261
283 286 285 284 281 281 279 276 272 266 263 262 257 255 253 254 253 248 247 246 244 243 242 242 242 244 244 244 246 247 248 248 250 252 253 253 253 254 256 258 259 261 262
284 286 288 287 284 282 280 278 274 270 267 265 260 257 256 255 253 252 249 248 245 242 242 242 242 243 244 245 246 248 249 250 251 251 253 255 254 255 256 257 260 261 263
285 285 289 289 286 284 281 279 276 273 271 267 263 259 257 256 254 252 250 248 247 244 243 243 243 243 244 246 247 249 250 251 252 253 253 254 255 256 258 260 261 263 264
286 286 289 290 289 286 282 278 276 273 271 270 265 260 257 255 254 252 252 249 245 244 245 245 244 243 244 246 248 250 252 252 252 254 255 255 256 257 258 260 262 264 265
Height
5842 5842 5842 5843 5844 5844 5845 5846 5847 5847 5848 5849 5850 5850 5851 5852 5853 5853 5854 5854 5855 5856 5856 5857 5857 5858 5858 5859 5859 5860 5860 5860 5861 5861 5862 5862 5862 5862 5862 5862 5862 5862 5862
5838 5838 5839 5840 5840 5841 5841 5842 5843 5844 5845 5846 5847 5848 5849 5850 5850 5851 5852 5853 5853 5854 5854 5855 5856 5856 5857 5857 5858 5858 5859 5859 5860 5860 5860 5861 5861 5861 5861 5861 5861 5861 5861
5834 5834 5835 5836 5836 5837 5837 5839 5840 5841 5842 5843 5844 5845 5846 5847 5848 5848 5849 5850 5851 5852 5853 5853 5854 5855 5855 5856 5856 5857 5857 5858 5858 5859 5859 5859 5860 5860 5860 5860 5860 5860 5860
5830 5830 5831 5831 5832 5832 5833 5834 5835 5837 5838 5839 5840 5842 5843 5843 5844 5845 5846 5847 5848 5849 5850 5851 5852 5852 5853 5854 5854 5855 5855 5856 5856 5857 5857 5858 5858 5858 5859 5859 5859 5859 5859
5825 5825 5826 5826 5826 5827 5828 5829 5830 5832 5833 5835 5836 5837 5839 5840 5841 5842 5843 5844 5845 5846 5847 5848 5849 5850 5851 5852 5852 5853 5853 5854 5854 5855 5855 5856 5856 5856 5857 5857 5857 5857 5857
5820 5820 5820 5821 5821 5821 5822 5823 5825 5826 5828 5829 5831 5832 5834 5835 5837 5838 5839 5840 5842 5843 5844 5845 5846 5847 5848 5849 5850 5850 5851 5852 5852 5853 5853 5853 5854 5854 5855 5855 5855 5855 5856
5814 5814 5814 5814 5815 5815 5816 5817 5819 5820 5822 5824 5825 5827 5829 5830 5832 5833 5834 5836 5837 5839 5840 5841 5842 5844 5845 5846 5847 5847 5848 5849 5849 5850 5850 5851 5851 5852 5852 5853 5853 5853 5853
5808 5808 5808 5808 5808 5809 5810 5811 5812 5814 5816 5817 5819 5821 5823 5824 5826 5828 5829 5831 5833 5834 5836 5837 5838 5840 5841 5842 5843 5844 5845 5846 5846 5847 5847 5848 5849 5849 5850 5850 5851 5851 5851
5801 5801 5801 5801 5801 5802 5803 5804 5805 5807 5809 5810 5812 5814 5816 5818 5820 5822 5823 5825 5827 5829 5830 5832 5834 5835 5836 5838 5839 5840 5841 5842 5843 5844 5844 5845 5846 5846 5847 5847 5848 5848 5848
5794 5794 5794 5794 5795 5795 5796 5797 5798 5799 5801 5803 5805 5807 5809 5811 5812 5815 5817 5819 5821 5823 5825 5826 5828 5830 5832 5833 5834 5836 5837 5838 5839 5840 5841 5841 5842 5843 5843 5844 5844 5845 5845
5788 5787 5787 5787 5787 5788 5788 5789 5791 5792 5794 5795 5797 5799 5801 5802 5804 5807 5810 5812 5815 5817 5819 5821 5822 5824 5826 5828 5829 5831 5832 5833 5834 5835 5836 5837 5838 5839 5839 5840 5840 5841 5841
5781 5781 5780 5780 5780 5781 5781 5782 5783 5785 5786 5787 5789 5791 5793 5794 5797 5799 5802 5805 5808 5810 5812 5814 5816 5818 5820 5822 5823 5825 5827 5828 5829 5830 5831 5832 5833 5834 5835 5835 5836 5836 5837
5774 5774 5773 5773 5773 5773 5774 5774 5775 5777 5778 5779 5781 5782 5784 5786 5789 5792 5795 5797 5800 5803 5805 5807 5810 5811 5813 5815 5817 5819 5821 5822 5823 5824 5826 5827 5828 5829 5830 5830 5831 5831 5832
5768 5767 5766 5765 5766 5766 5766 5767 5768 5768 5769 5771 5772 5774 5775 5778 5780 5783 5787 5789 5792 5795 5798 5800 5802 5804 5806 5808 5811 5812 5814 5816 5817 5819 5820 5821 5822 5823 5824 5825 5826 5826 5827
5761 5760 5759 5758 5758 5758 5758 5759 5759 5760 5761 5762 5764 5765 5767 5769 5772 5775 5778 5781 5784 5787 5790 5792 5795 5797 5799 5801 5803 5805 5807 5809 5811 5812 5813 5815 5816 5817 5818 5819 5820 5820 5821
5753 5752 5752 5751 5751 5750 5750 5750 5751 5751 5752 5754 5755 5757 5759 5761 5764 5767 5770 5773 5776 5778 5781 5784 5787 5789 5791 5793 5796 5798 5800 5802 5804 5805 5807 5808 5809 5811 5812 5813 5813 5814 5815
5746 5745 5744 5744 5743 5743 5742 5742 5742 5743 5744 5745 5747 5749 5751 5753 5755 5758 5761 5764 5767 5770 5773 5775 5778 5780 5783 5785 5787 5789 5792 5794 5796 5798 5799 5801 5802 5804 5805 5806 5807 5808 5808
5739 5738 5737 5737 5736 5735 5734 5734 5734 5734 5735 5737 5739 5740 5742 5744 5746 5750 5753 5756 5759 5762 5764 5767 5769 5772 5774 5776 5779 5781 5784 5786 5788 5790 5791 5793 5795 5797 5798 5799 5800 5800 5801
5732 5731 5730 5729 5728 5727 5726 5725 5725 5726 5727 5729 5730 5732 5733 5735 5737 5740 5744 5747 5750 5753 5755 5758 5760 5763 5765 5768 5770 5773 5775 5777 5779 5781 5783 5785 5787 5789 5790 5791 5792 5793 5793
5725 5724 5723 5722 5721 5719 5718 5717 5717 5718 5718 5720 5722 5723 5724 5727 5729 5731 5735 5738 5741 5744 5747 5749 5752 5755 5757 5760 5762 5765 5767 5769 5771 5773 5775 5777 5779 5781 5782 5783 5784 5785 5786
5719 5718 5717 5715 5714 5712 5711 5710 5709 5709 5710 5711 5713 5714 5716 5718 5720 5723 5726 5729 5732 5735 5738 5741 5743 5746 5749 5752 5754 5756 5759 5760 5762 5764 5766 5768 5770 5772 5774 5775 5776 5777 5777
5713 5712 5711 5709 5707 5706 5704 5703 5702 5701 5702 5703 5704 5706 5708 5710 5713 5715 5718 5720 5723 5726 5729 5732 5735 5738 5741 5743 5746 5748 5750 5753 5754 5756 5757 5759 5761 5763 5765 5766 5767 5768 5769
5708 5706 5705 5703 5701 5700 5698 5696 5695 5694 5694 5695 5696 5698 5700 5702 5704 5707 5709 5712 5714 5717 5721 5723 5726 5729 5732 5735 5737 5740 5742 5744 5746 5748 5749 5751 5752 5754 5756 5757 5758 5759 5760
5702 5700 5699 5697 5695 5693 5691 5690 5688 5687 5687 5687 5688 5690 5692 5694 5696 5698 5700 5702 5705 5708 5711 5714 5718 5721 5724 5727 5729 5731 5734 5736 5737 5739 5741 5742 5743 5745 5746 5747 5748 5749 5750
5696 5694 5693 5691 5689 5687 5685 5683 5682 5681 5680 5680 5680 5682 5683 5685 5687 5690 5692 5694 5696 5699 5702 5706 5709 5712 5715 5718 5720 5723 5724 5726 5728 5730 5732 5733 5734 5735 5736 5737 5738 5739 5739
5690 5688 5686 5685 5683 5681 5679 5677 5676 5675 5674 5673 5673 5674 5675 5677 5679 5681 5683 5685 5688 5690 5693 5697 5700 5703 5706 5708 5711 5713 5715 5716 5718 5720 5722 5723 5724 5725 5726 5727 5727 5728 5728